User: anonymous   Login
Location: Unspecified
(0.0000°N, 0.0000°E)
Time: 11:28:26
(UTC+00:00)
Language:

DMSP B5D2-7 - Orbit

View from above orbital plane
View from above orbital plane
View from above satellite
View from above satellite

Ground track
Ground track

The orbit data is extracted from the following two-line orbital elements,

1 23233U 94057A   18315.78111683 0.00000050  00000-0  25537-4 0    05
2 23233  99.0666 336.4842 0009000 254.1571 105.8427 14.15656003    03
Epoch (UTC): 11 November 2018 18:44:48
Eccentricity: 0.0009000
inclination: 99.0666°
perigee height: 833 km
apogee height: 846 km
right ascension of ascending node: 336.4842°
argument of perigee: 254.1571°
revolutions per day: 14.15656003
mean anomaly at epoch: 105.8427°
orbit number at epoch: 0

The dashed part of the orbit path shows where the satellite is in the earth's shadow,  

DLR